"Timestamp","TZ","WindDir_Mean (deg)","WindSpd_Mean (km/h)","WindSpd_Min (km/h)","WindSpd_Max (km/h)","Temp_Mean (deg)","RH_Mean (%)","MSLP_Mean (hPa)","Rain_Acc (mm)","Rain_Intensity (mm/h)","Hail_Acc (hits/cm2)","Hail_Intensity (hits/cm2hr)","Solar_Mean (W/m2)"
2022/11/26 00:00:00.011,n,6,3.96,2.16,7.2,21.9,56.5,1013.72,0,0,0,0,0.026093
2022/11/26 00:01:00.001,n,346,6.48,5.76,6.84,21.9,57,1013.72,0,0,0,0,0.020905
2022/11/26 00:02:00.001,n,27,3.24,2.16,6.12,21.9,56.1,1013.72,0,0,0,0,0.023499
2022/11/26 00:03:00.001,n,1,5.76,4.68,6.48,21.8,56.4,1013.72,0,0,0,0,0.021744
2022/11/26 00:04:00.001,n,21,5.76,5.4,6.12,21.8,55.9,1013.72,0,0,0,0,0.02697
2022/11/26 00:05:00.002,n,34,5.4,4.32,6.84,21.8,55.9,1013.62,0,0,0,0,0.025253
2022/11/26 00:06:00.005,n,346,2.88,1.08,5.4,21.8,55.9,1013.62,0,0,0,0,0.021744
2022/11/26 00:07:00.005,n,15,4.68,3.24,7.92,21.8,56.1,1013.62,0,0,0,0,0.024376
2022/11/26 00:08:00.008,n,357,7.56,6.84,8.28,21.7,56.3,1013.62,0,0,0,0,0.027885
2022/11/26 00:09:00.011,n,16,5.4,4.32,11.16,21.7,56.5,1013.62,0,0,0,0,0.024376
2022/11/26 00:10:00.002,n,354,6.12,4.68,7.56,21.7,56.3,1013.62,0,0,0,0,0.024376
2022/11/26 00:11:00.002,n,8,8.64,6.48,13.68,21.7,56.3,1013.52,0,0,0,0,0.025253
2022/11/26 00:12:00.007,n,25,3.6,3.24,3.96,21.7,56.6,1013.52,0,0,0,0,0.020027
2022/11/26 00:13:00.003,n,13,5.76,4.68,9,21.7,56.5,1013.52,0,0,0,0,0.024376
2022/11/26 00:14:00.005,n,343,2.16,1.08,4.32,21.7,56.5,1013.52,0,0,0,0,0.020905
2022/11/26 00:15:00.007,n,25,3.24,1.08,5.76,21.7,56.4,1013.52,0,0,0,0,0.018311
2022/11/26 00:16:00.001,n,336,9.36,5.76,13.32,21.7,56.6,1013.52,0,0,0,0,0.018311
2022/11/26 00:17:00.002,n,9,6.12,4.68,11.16,21.7,55.9,1013.42,0,0,0,0,0.023499
2022/11/26 00:18:00.006,n,19,7.2,6.12,8.28,21.7,55.9,1013.52,0,0,0,0,0.021744
2022/11/26 00:19:00.002,n,350,7.2,5.76,11.88,21.7,55.8,1013.52,0,0,0,0,0.020027
2022/11/26 00:20:00.001,n,20,6.12,5.04,7.2,21.7,55.7,1013.42,0,0,0,0,0.020027
2022/11/26 00:21:00.001,n,12,7.92,6.12,9.72,21.7,55.8,1013.42,0,0,0,0,0.016518
2022/11/26 00:22:00.001,n,37,5.04,2.16,6.84,21.7,55.8,1013.42,0,0,0,0,0.018234
2022/11/26 00:23:00.001,n,19,10.08,8.64,12.24,21.7,55.6,1013.42,0,0,0,0,0.025215
2022/11/26 00:24:00.002,n,22,7.2,6.12,9,21.7,55.7,1013.42,0,0,0,0,0.020866
2022/11/26 00:25:00.005,n,2,5.04,3.96,7.56,21.7,55.7,1013.32,0,0,0,0,0.025215
2022/11/26 00:26:00.010,n,16,7.56,6.48,8.64,21.7,55.4,1013.32,0,0,0,0,0.02346
2022/11/26 00:27:00.013,n,16,8.64,6.12,10.440002,21.7,55,1013.32,0,0,0,0,0.02346
2022/11/26 00:28:00.001,n,20,6.48,3.96,8.64,21.7,55.1,1013.32,0,0,0,0,0.021744
2022/11/26 00:29:00.001,n,95,2.52,0.72,5.04,21.7,55.3,1013.32,0,0,0,0,0.020866
2022/11/26 00:30:00.002,n,340,9.72,8.64,13.68,21.7,54.9,1013.32,0,0,0,0,0.02346
2022/11/26 00:31:00.001,n,7,5.04,2.88,9.36,21.7,55.3,1013.32,0,0,0,0,0.022583
2022/11/26 00:32:00.002,n,9,7.2,5.76,9,21.7,54.9,1013.32,0,0,0,0,0.024338
2022/11/26 00:33:00.004,n,340,7.92,7.2,9,21.7,54.9,1013.32,0,0,0,0,0.019989
2022/11/26 00:34:00.008,n,345,8.64,7.56,10.8,21.7,56.3,1013.32,0,0,0,0,0.021744
2022/11/26 00:35:00.011,n,354,6.48,3.96,7.2,21.7,55.5,1013.32,0,0,0,0,0.024338
2022/11/26 00:36:00.016,n,0,7.92,7.2,9,21.7,55,1013.32,0,0,0,0,0.020866
2022/11/26 00:37:00.004,n,349,4.68,3.24,5.76,21.7,57.8,1013.32,0,0,0,0,0.019112
2022/11/26 00:38:00.001,n,14,3.6,3.6,3.96,21.7,55.3,1013.32,0,0,0,0,0.020866
2022/11/26 00:39:00.001,n,336,3.6,2.52,7.56,21.7,56.3,1013.32,0,0,0,0,0.019989
2022/11/26 00:40:00.005,n,355,3.6,0.72,4.68,21.7,58.1,1013.32,0,0,0,0,0.017357
2022/11/26 00:41:00.008,n,336,4.32,1.44,6.84,21.8,57.5,1013.32,0,0,0,0,0.017357
2022/11/26 00:42:00.011,n,265,2.52,1.8,3.6,21.7,57.8,1013.32,0,0,0,0,0.018234
2022/11/26 00:43:00.002,n,219,1.8,0.72,3.24,21.7,57.2,1013.32,0,0,0,0,0.016518
2022/11/26 00:44:00.004,n,265,3.24,2.88,3.6,21.7,56.9,1013.22,0,0,0,0,0.018234
2022/11/26 00:45:00.007,n,347,3.6,1.44,7.2,21.7,57.8,1013.22,0,0,0,0,0.016518
2022/11/26 00:46:00.002,n,315,2.88,2.52,3.96,21.6,59.1,1013.22,0,0,0,0,0.018234
2022/11/26 00:47:00.002,n,324,3.6,2.16,4.32,21.6,56.7,1013.22,0,0,0,0,0.020866
2022/11/26 00:48:00.002,n,295,2.52,1.44,3.24,21.6,56.4,1013.22,0,0,0,0,0.020866
2022/11/26 00:49:00.011,n,241,3.24,1.44,4.32,21.6,57.9,1013.22,0,0,0,0,0.024338
2022/11/26 00:50:00.006,n,348,3.6,1.44,7.56,21.6,58.7,1013.22,0,0,0,0,0.027809
2022/11/26 00:51:00.004,n,319,3.96,2.88,8.64,21.6,58.4,1013.22,0,0,0,0,0.026932
2022/11/26 00:52:00.023,n,222,2.52,2.16,2.88,21.6,57.3,1013.22,0,0,0,0,0.031319
2022/11/26 00:53:00.001,n,212,2.88,1.44,4.32,21.6,57.8,1013.22,0,0,0,0,0.033035
2022/11/26 00:54:00.027,n,202,2.88,1.08,5.76,21.6,56.9,1013.22,0,0,0,0,0.033913
2022/11/26 00:55:00.002,n,145,3.24,2.52,4.32,21.5,56.6,1013.22,0,0,0,0,0.038261
2022/11/26 00:56:00.002,n,213,2.88,1.8,3.24,21.5,56.2,1013.12,0,0,0,0,0.043488
2022/11/26 00:57:00.005,n,216,2.88,1.08,3.96,21.4,56.6,1013.12,0,0,0,0,0.043488
2022/11/26 00:58:00.007,n,190,2.88,1.8,3.96,21.4,57.2,1013.12,0,0,0,0,0.045204
2022/11/26 00:59:00.006,n,286,1.44,0.36,2.52,21.4,59,1013.22,0,0,0,0,0.023499
2022/11/26 01:00:00.002,n,353,2.52,1.44,3.6,21.4,59.8,1013.22,0,0,0,0,0.032196
2022/11/26 01:01:00.006,n,217,2.52,0.72,4.32,21.4,59.6,1013.22,0,0,0,0,0.033951
2022/11/26 01:02:00.009,n,256,2.88,1.44,4.68,21.4,59.6,1013.22,0,0,0,0,0.034828
2022/11/26 01:03:00.012,n,14,5.4,2.52,8.64,21.3,58,1013.22,0,0,0,0,0.037384
2022/11/26 01:04:00.002,n,339,1.44,0.36,3.6,21.3,58.8,1013.22,0,0,0,0,0.0383
2022/11/26 01:05:00.002,n,291,0.72,0.36,1.08,21.3,58.2,1013.22,0,0,0,0,0.040894
2022/11/26 01:06:00.005,n,173,3.24,1.08,5.76,21.3,58,1013.12,0,0,0,0,0.0383
2022/11/26 01:07:00.006,n,345,1.44,0.72,3.24,21.2,58.1,1013.12,0,0,0,0,0.041771
2022/11/26 01:08:00.009,n,23,2.88,2.52,3.96,21.2,57.5,1013.12,0,0,0,0,0.040894
2022/11/26 01:09:00.015,n,18,3.96,2.52,4.68,21.2,57.5,1013.12,0,0,0,0,0.04612
2022/11/26 01:10:00.028,n,10,4.68,2.88,8.64,21.2,57,1013.12,0,0,0,0,0.047836
2022/11/26 01:11:00.025,n,24,5.04,4.68,5.4,21.1,57,1013.02,0,0,0,0,0.047836
2022/11/26 01:12:00.014,n,19,2.52,1.8,4.32,21.1,57.1,1013.02,0,0,0,0,0.046997
2022/11/26 01:13:00.003,n,354,1.08,0.36,1.8,21.1,57.6,1013.02,0,0,0,0,0.050468
2022/11/26 01:14:00.002,n,297,0.72,0.36,1.44,21.1,57.7,1013.02,0,0,0,0,0.054817
2022/11/26 01:15:00.005,n,245,0.36,0.36,0.72,21.1,57.9,1013.02,0,0,0,0,0.026093
2022/11/26 01:16:00.002,n,162,2.88,0,7.2,21.1,57.7,1013.02,0,0,0,0,0.029564
2022/11/26 01:17:00.001,n,176,2.88,2.16,3.6,21.1,57.4,1013.02,0,0,0,0,0.033913
2022/11/26 01:18:00.006,n,179,1.08,0.36,5.4,21.1,57.5,1013.02,0,0,0,0,0.031319
2022/11/26 01:19:00.008,n,278,1.8,0.36,5.04,21,57.7,1012.92,0,0,0,0,0.032196
2022/11/26 01:20:00.001,n,111,1.08,0.72,1.44,21,57.7,1012.92,0,0,0,0,0.033035
2022/11/26 01:21:00.014,n,242,1.08,0.72,1.44,21,57.9,1012.92,0,0,0,0,0.033035
2022/11/26 01:22:00.002,n,80,0.36,0.36,0.72,21,57.9,1012.92,0,0,0,0,0.036545
2022/11/26 01:23:00.003,n,210,1.8,0.72,4.32,21,58,1012.92,0,0,0,0,0.036545
2022/11/26 01:24:00.001,n,262,2.16,2.16,2.52,21,58,1012.92,0,0,0,0,0.037384
2022/11/26 01:25:00.017,n,218,2.52,2.16,3.6,20.9,58,1012.92,0,0,0,0,0.033035
2022/11/26 01:26:00.002,n,255,4.32,3.96,4.68,20.9,58.1,1012.92,0,0,0,0,0.035667
2022/11/26 01:27:00.007,n,238,4.32,1.44,5.76,20.9,58.4,1012.92,0,0,0,0,0.037384
2022/11/26 01:28:00.005,n,264,3.24,2.88,3.6,20.9,58.5,1012.92,0,0,0,0,0.036545
2022/11/26 01:29:00.017,n,215,2.16,1.8,5.04,20.8,58.7,1012.92,0,0,0,0,0.040894
2022/11/26 01:30:00.011,n,218,2.88,1.8,3.6,20.8,58.9,1012.92,0,0,0,0,0.036545
2022/11/26 01:31:00.001,n,252,1.8,0.72,2.52,20.8,59.3,1012.92,0,0,0,0,0.039139
2022/11/26 01:32:00.002,n,306,1.08,1.08,1.44,20.7,59.2,1012.82,0,0,0,0,0.039139
2022/11/26 01:33:00.001,n,269,1.08,0.72,1.8,20.7,59.6,1012.82,0,0,0,0,0.037384
2022/11/26 01:34:00.002,n,297,2.16,1.44,3.96,20.7,60.3,1012.82,0,0,0,0,0.037384
2022/11/26 01:35:00.002,n,275,2.52,1.8,2.88,20.7,59.9,1012.82,0,0,0,0,0.038261
2022/11/26 01:36:00.008,n,270,2.52,2.16,2.52,20.7,59.6,1012.82,0,0,0,0,0.040894
2022/11/26 01:37:00.009,n,262,2.16,2.16,2.16,20.6,59.4,1012.82,0,0,0,0,0.039978
2022/11/26 01:38:00.015,n,245,1.8,1.44,2.16,20.6,59.8,1012.82,0,0,0,0,0.039139
2022/11/26 01:39:00.002,n,181,1.08,0,5.76,20.6,60,1012.82,0,0,0,0,0.040894
2022/11/26 01:40:00.002,n,31,0.72,0.36,1.44,20.6,59.8,1012.82,0,0,0,0,0.041771
2022/11/26 01:41:00.002,n,319,0.72,0.36,0.72,20.6,60.2,1012.82,0,0,0,0,0.045204
2022/11/26 01:42:00.006,n,292,1.08,0.36,1.44,20.6,59.6,1012.82,0,0,0,0,0.040894
2022/11/26 01:43:00.003,n,356,0.36,0,0.72,20.6,59.6,1012.82,0,0,0,0,0.043488
2022/11/26 01:44:00.001,n,283,1.44,1.08,1.8,20.6,59.6,1012.82,0,0,0,0,0.040894
2022/11/26 01:45:00.001,n,251,1.8,1.08,3.24,20.6,59.6,1012.72,0,0,0,0,0.039139
2022/11/26 01:46:00.002,n,240,1.44,0.36,3.6,20.6,59.6,1012.72,0,0,0,0,0.039978
2022/11/26 01:47:00.015,n,1,0.72,0.36,0.72,20.5,59.7,1012.72,0,0,0,0,0.038261
2022/11/26 01:48:00.011,n,247,0.72,0.36,1.08,20.5,59.7,1012.72,0,0,0,0,0.041771
2022/11/26 01:49:00.001,n,70,2.16,1.44,3.24,20.5,60.1,1012.72,0,0,0,0,0.039978
2022/11/26 01:50:00.001,n,56,1.08,0.72,1.8,20.5,60.4,1012.72,0,0,0,0,0.043488
2022/11/26 01:51:00.002,n,144,0.36,0.36,0.72,20.5,60.3,1012.72,0,0,0,0,0.040894
2022/11/26 01:52:00.001,n,100,0.72,0.36,1.44,20.5,60.5,1012.72,0,0,0,0,0.036545
2022/11/26 01:53:00.332,n,214,1.44,0.72,4.32,20.5,60.4,1012.72,0,0,0,0,0.039978
2022/11/26 01:54:00.008,n,261,0.72,0.36,1.8,20.5,60.4,1012.62,0,0,0,0,0.039978
2022/11/26 01:55:00.002,n,171,0.72,0.36,1.8,20.5,60.5,1012.62,0,0,0,0,0.040894
2022/11/26 01:56:00.005,n,179,2.16,1.08,5.4,20.5,60.4,1012.62,0,0,0,0,0.041771
2022/11/26 01:57:00.009,n,296,0.36,0,0.36,20.4,60.7,1012.62,0,0,0,0,0.04261
2022/11/26 01:58:00.001,n,228,1.8,0.36,5.4,20.4,60.9,1012.62,0,0,0,0,0.039978
2022/11/26 01:59:00.002,n,199,0.36,0,0.72,20.4,60.7,1012.62,0,0,0,0,0.04261
2022/11/26 02:00:00.001,n,185,2.52,1.44,5.76,20.4,60.9,1012.62,0,0,0,0,0.038261
2022/11/26 02:01:00.001,n,213,1.8,1.08,5.4,20.4,60.9,1012.62,0,0,0,0,0.040894
2022/11/26 02:02:00.002,n,121,1.08,0.72,1.44,20.4,60.9,1012.62,0,0,0,0,0.039978
2022/11/26 02:03:00.016,n,136,2.16,1.8,2.52,20.3,61,1012.62,0,0,0,0,0.039139
2022/11/26 02:04:00.011,n,141,2.16,1.8,2.52,20.3,61.3,1012.62,0,0,0,0,0.040894
2022/11/26 02:05:00.013,n,151,3.24,3.24,3.24,20.3,61.3,1012.62,0,0,0,0,0.035667
2022/11/26 02:06:00.004,n,137,1.08,0.72,1.44,20.3,61.8,1012.62,0,0,0,0,0.038261
2022/11/26 02:07:00.002,n,113,1.08,1.08,1.44,20.3,62.3,1012.62,0,0,0,0,0.04261
2022/11/26 02:08:00.002,n,137,1.08,0.36,5.04,20.3,62.4,1012.62,0,0,0,0,0.039139
2022/11/26 02:09:00.002,n,161,2.88,1.08,6.48,20.3,62.4,1012.62,0,0,0,0,0.035667
2022/11/26 02:10:00.007,n,200,2.88,2.52,6.48,20.2,62.4,1012.62,0,0,0,0,0.039978
2022/11/26 02:11:00.012,n,186,2.52,1.08,5.76,20.2,62.4,1012.62,0,0,0,0,0.040894
2022/11/26 02:12:00.004,n,200,1.8,1.08,5.04,20.2,62.5,1012.62,0,0,0,0,0.036545
2022/11/26 02:13:00.007,n,195,2.52,1.08,5.4,20.2,62.6,1012.62,0,0,0,0,0.039139
2022/11/26 02:14:00.007,n,113,0.72,0.36,1.08,20.2,62.6,1012.62,0,0,0,0,0.038261
2022/11/26 02:15:00.007,n,188,1.08,0.36,2.16,20.2,62.8,1012.62,0,0,0,0,0.039978
2022/11/26 02:16:00.001,n,122,1.8,1.08,5.4,20.2,62.9,1012.62,0,0,0,0,0.038261
2022/11/26 02:17:00.005,n,157,2.88,2.52,3.24,20.2,63.4,1012.62,0,0,0,0,0.039978
2022/11/26 02:18:00.004,n,162,1.44,1.08,1.8,20.1,63.4,1012.62,0,0,0,0,0.035667
2022/11/26 02:19:00.001,n,151,2.88,2.88,3.24,20.1,63.8,1012.62,0,0,0,0,0.038261
2022/11/26 02:20:00.006,n,150,2.88,2.52,2.88,20.1,64.199996,1012.62,0,0,0,0,0.039978
2022/11/26 02:21:00.001,n,147,3.24,3.24,3.6,20.1,64.4,1012.62,0,0,0,0,0.038261
2022/11/26 02:22:00.027,n,163,3.24,2.52,3.6,20,64.6,1012.62,0,0,0,0,0.03479
2022/11/26 02:23:00.017,n,143,3.24,0.72,5.04,20,64.699996,1012.62,0,0,0,0,0.036545
2022/11/26 02:24:00.017,n,156,3.6,2.88,7.56,19.9,64.699996,1012.62,0,0,0,0,0.035667
2022/11/26 02:25:00.001,n,153,2.88,2.88,3.24,19.9,65.1,1012.62,0,0,0,0,0.039978
2022/11/26 02:26:00.002,n,142,4.32,3.96,4.68,19.9,65.4,1012.62,0,0,0,0,0.037384
2022/11/26 02:27:00.002,n,69,1.8,0.72,3.24,19.8,65.699996,1012.62,0,0,0,0,0.038261
2022/11/26 02:28:00.006,n,71,1.44,1.08,1.8,19.8,65.9,1012.62,0,0,0,0,0.035667
2022/11/26 02:29:00.001,n,117,1.8,1.08,2.16,19.8,66,1012.62,0,0,0,0,0.035667
2022/11/26 02:30:00.014,n,115,1.8,1.44,2.16,19.8,66.1,1012.62,0,0,0,0,0.031319
2022/11/26 02:31:00.013,n,178,2.16,1.08,6.12,19.8,66.1,1012.62,0,0,0,0,0.033913
2022/11/26 02:32:00.011,n,182,1.08,0.36,1.8,19.7,66,1012.62,0,0,0,0,0.038261
2022/11/26 02:33:00.014,n,187,3.6,2.88,5.04,19.7,66.300004,1012.52,0,0,0,0,0.033913
2022/11/26 02:34:00.002,n,141,2.52,2.16,2.88,19.6,66.4,1012.52,0,0,0,0,0.033035
2022/11/26 02:35:00.005,n,155,3.96,3.6,4.32,19.6,66.6,1012.52,0,0,0,0,0.033913
2022/11/26 02:36:00.002,n,145,2.52,1.8,6.12,19.5,66.6,1012.52,0,0,0,0,0.03479
2022/11/26 02:37:00.002,n,155,5.04,4.32,5.4,19.5,66.699996,1012.52,0,0,0,0,0.035667
2022/11/26 02:38:00.012,n,164,3.96,3.6,4.32,19.5,66.699996,1012.52,0,0,0,0,0.031319
2022/11/26 02:39:00.019,n,171,3.96,2.52,9,19.5,66.5,1012.52,0,0,0,0,0.030441
2022/11/26 02:40:00.001,n,161,4.68,3.6,9.36,19.4,66.9,1012.52,0,0,0,0,0.028687
2022/11/26 02:41:00.001,n,155,4.32,3.6,5.04,19.4,66.6,1012.52,0,0,0,0,0.029564
2022/11/26 02:42:00.014,n,161,7.92,4.68,12.6,19.4,65.699996,1012.52,0,0,0,0,0.028687
2022/11/26 02:43:00.002,n,282,1.8,1.44,2.52,19.4,65.300004,1012.52,0,0,0,0,0.032196
2022/11/26 02:44:00.011,n,124,2.16,1.08,2.52,19.4,65.5,1012.52,0,0,0,0,0.032196
2022/11/26 02:45:00.003,n,277,1.44,0.72,3.6,19.4,65.699996,1012.52,0,0,0,0,0.029564
2022/11/26 02:46:00.007,n,118,0.72,0.36,3.24,19.5,65.9,1012.52,0,0,0,0,0.029564
2022/11/26 02:47:00.013,n,164,1.44,0.72,5.4,19.4,65.1,1012.42,0,0,0,0,0.02697
2022/11/26 02:48:00.007,n,207,4.32,3.24,7.56,19.4,64.6,1012.42,0,0,0,0,0.027809
2022/11/26 02:49:00.003,n,241,0.72,0.36,2.16,19.5,64.300004,1012.42,0,0,0,0,0.024338
2022/11/26 02:50:00.006,n,119,1.08,0.72,1.44,19.5,64.699996,1012.42,0,0,0,0,0.027809
2022/11/26 02:51:00.010,n,262,1.44,0.72,2.52,19.5,64.6,1012.42,0,0,0,0,0.024338
2022/11/26 02:52:00.002,n,241,0.36,0.36,0.36,19.5,64.9,1012.42,0,0,0,0,0.026093
2022/11/26 02:53:00.004,n,345,1.08,0.36,4.68,19.5,65,1012.42,0,0,0,0,0.02697
2022/11/26 02:54:00.002,n,7,1.8,0.72,6.12,19.5,64.699996,1012.42,0,0,0,0,0.024338
2022/11/26 02:55:00.002,n,5,1.08,0.72,1.44,19.5,64.699996,1012.42,0,0,0,0,0.02697
2022/11/26 02:56:00.013,n,245,1.08,0.36,1.8,19.5,64.6,1012.42,0,0,0,0,0.024338
2022/11/26 02:57:00.015,n,39,2.16,1.8,2.52,19.5,64.5,1012.42,0,0,0,0,0.022621
2022/11/26 02:58:00.007,n,154,0.36,0,0.72,19.5,64.4,1012.42,0,0,0,0,0.02346
2022/11/26 02:59:00.006,n,33,1.08,0.36,2.16,19.5,64.6,1012.42,0,0,0,0,0.025253
2022/11/26 03:00:00.001,n,37,2.52,1.8,3.24,19.5,64.699996,1012.42,0,0,0,0,0.030441
2022/11/26 03:01:00.001,n,198,1.44,0.72,5.04,19.5,64.699996,1012.42,0,0,0,0,0.02697
2022/11/26 03:02:00.001,n,292,1.44,1.08,1.8,19.5,64.800004,1012.42,0,0,0,0,0.02697
2022/11/26 03:03:00.001,n,92,1.08,0.36,1.8,19.5,64.9,1012.42,0,0,0,0,0.025253
2022/11/26 03:04:00.002,n,345,1.08,0.72,1.44,19.5,64.199996,1012.42,0,0,0,0,0.027847
2022/11/26 03:05:00.009,n,214,4.68,3.96,5.04,19.4,64.300004,1012.42,0,0,0,0,0.028687
2022/11/26 03:06:00.006,n,99,1.44,0.72,2.16,19.4,64.800004,1012.42,0,0,0,0,0.026093
2022/11/26 03:07:00.008,n,45,1.44,0.72,2.52,19.5,64.699996,1012.42,0,0,0,0,0.027847
2022/11/26 03:08:00.005,n,298,2.16,1.8,2.52,19.5,64.300004,1012.42,0,0,0,0,0.029564
2022/11/26 03:09:00.018,n,235,2.88,0.72,4.68,19.5,64,1012.42,0,0,0,0,0.025253
2022/11/26 03:10:00.002,n,289,2.16,1.8,2.88,19.5,63.8,1012.42,0,0,0,0,0.027847
2022/11/26 03:11:00.001,n,221,0.72,0.36,1.08,19.5,63.9,1012.42,0,0,0,0,0.024338
2022/11/26 03:12:00.001,n,19,1.8,0.36,3.24,19.4,63.9,1012.42,0,0,0,0,0.028687
2022/11/26 03:13:00.008,n,349,1.44,0.36,4.32,19.4,64.300004,1012.42,0,0,0,0,0.02697
2022/11/26 03:14:00.001,n,288,1.8,1.08,2.88,19.4,64.300004,1012.42,0,0,0,0,0.02697
2022/11/26 03:15:00.003,n,128,0.72,0,1.08,19.4,64.1,1012.42,0,0,0,0,0.02697
2022/11/26 03:16:00.006,n,306,0.72,0.36,1.08,19.4,64,1012.42,0,0,0,0,0.02697
2022/11/26 03:17:00.019,n,320,0.36,0.36,1.08,19.4,64,1012.42,0,0,0,0,0.02697
2022/11/26 03:18:00.016,n,144,0.36,0.36,0.72,19.3,64.1,1012.42,0,0,0,0,0.024338
2022/11/26 03:19:00.001,n,114,0.72,0.36,1.08,19.3,64.199996,1012.42,0,0,0,0,0.021744
2022/11/26 03:20:00.002,n,88,1.08,0.36,5.04,19.3,64.199996,1012.42,0,0,0,0,0.024338
2022/11/26 03:21:00.001,n,76,0.72,0,1.44,19.4,64.199996,1012.42,0,0,0,0,0.028687
2022/11/26 03:22:00.011,n,201,2.16,1.8,5.04,19.4,64.300004,1012.42,0,0,0,0,0.024338
2022/11/26 03:23:00.001,n,291,2.88,2.52,3.24,19.3,64.1,1012.42,0,0,0,0,0.025253
2022/11/26 03:24:00.002,n,235,1.08,0.36,3.6,19.3,64.800004,1012.42,0,0,0,0,0.024338
2022/11/26 03:25:00.003,n,215,1.08,0.36,1.44,19.3,64.5,1012.42,0,0,0,0,0.024338
2022/11/26 03:26:00.012,n,258,1.08,0.36,1.44,19.3,64.5,1012.42,0,0,0,0,0.022621
2022/11/26 03:27:00.008,n,225,1.44,1.08,2.16,19.3,64.300004,1012.52,0,0,0,0,0.019112
2022/11/26 03:28:00.001,n,257,1.8,1.44,1.8,19.3,64.4,1012.52,0,0,0,0,0.020027
2022/11/26 03:29:00.002,n,261,2.88,2.52,2.88,19.2,64.300004,1012.52,0,0,0,0,0.023499
2022/11/26 03:30:00.002,n,202,2.16,0.36,5.4,19.2,64.199996,1012.52,0,0,0,0,0.022621
2022/11/26 03:31:00.005,n,289,1.44,1.44,1.8,19.2,64.1,1012.52,0,0,0,0,0.021744
2022/11/26 03:32:00.006,n,353,1.08,0.36,1.44,19.2,64.6,1012.52,0,0,0,0,0.019112
2022/11/26 03:33:00.011,n,212,1.08,0.36,5.4,19.2,64.9,1012.42,0,0,0,0,0.018272
2022/11/26 03:34:00.012,n,261,2.88,2.16,3.6,19.2,63.5,1012.42,0,0,0,0,0.015678
2022/11/26 03:35:00.004,n,327,0.36,0,0.36,19.2,63.7,1012.42,0,0,0,0,0.025215
2022/11/26 03:36:00.013,n,162,1.44,0,2.88,19.2,64.4,1012.42,0,0,0,0,0.028687
2022/11/26 03:37:00.001,n,252,2.88,1.8,3.24,19.2,64.4,1012.52,0,0,0,0,0.032158
2022/11/26 03:38:00.002,n,264,3.6,2.88,5.04,19.2,63.3,1012.52,0,0,0,0,0.021744
2022/11/26 03:39:00.001,n,188,2.16,1.44,4.68,19.1,63.4,1012.52,0,0,0,0,0.016518
2022/11/26 03:40:00.001,n,185,2.52,1.08,5.04,19.1,63.5,1012.52,0,0,0,0,0.021744
2022/11/26 03:41:00.001,n,233,3.6,2.16,3.96,19.1,63.9,1012.52,0,0,0,0,0.023499
2022/11/26 03:42:00.003,n,246,1.08,0.36,1.44,19.1,63.5,1012.52,0,0,0,0,0.020027
2022/11/26 03:43:00.005,n,141,2.88,2.16,3.96,19.1,63.7,1012.42,0,0,0,0,0.021744
2022/11/26 03:44:00.009,n,163,1.44,0.72,6.12,19.1,64.1,1012.52,0,0,0,0,0.016518
2022/11/26 03:45:00.013,n,290,3.6,2.88,4.32,19.1,64.800004,1012.52,0,0,0,0,0.016518
2022/11/26 03:46:00.001,n,147,1.44,1.44,1.8,19.1,64.5,1012.52,0,0,0,0,0.01133
2022/11/26 03:47:00.002,n,141,1.8,1.44,1.8,19.1,64.199996,1012.42,0,0,0,0,0.024376
2022/11/26 03:48:00.001,n,157,3.6,2.16,6.48,19.1,64.300004,1012.42,0,0,0,0,0.026093
2022/11/26 03:49:00.003,n,169,2.52,2.16,2.88,19.1,64.699996,1012.52,0,0,0,0,0.023499
2022/11/26 03:50:00.006,n,161,2.16,1.44,6.12,19,65.1,1012.52,0,0,0,0,0.021744
2022/11/26 03:51:00.010,n,229,1.08,0.36,1.8,19,65.300004,1012.52,0,0,0,0,0.01915
2022/11/26 03:52:00.001,n,271,1.8,1.44,2.52,19,65.4,1012.52,0,0,0,0,0.020027
2022/11/26 03:53:00.002,n,123,1.44,0.72,2.52,19,65.5,1012.52,0,0,0,0,0.014801
2022/11/26 03:54:00.007,n,156,4.68,4.32,9.36,19,65.5,1012.52,0,0,0,0,0.022621
2022/11/26 03:55:00.001,n,188,1.8,1.08,4.32,19,65.6,1012.52,0,0,0,0,0.025215
2022/11/26 03:56:00.001,n,239,1.44,0.72,4.32,19,65.5,1012.52,0,0,0,0,0.02346
2022/11/26 03:57:00.001,n,233,1.44,0.72,1.44,18.9,66,1012.52,0,0,0,0,0.020866
2022/11/26 03:58:00.001,n,162,3.6,1.44,7.56,18.9,66,1012.52,0,0,0,0,0.021744
2022/11/26 03:59:00.002,n,163,3.6,3.24,3.96,18.9,66.1,1012.52,0,0,0,0,0.018234
2022/11/26 04:00:00.005,n,164,3.24,3.24,3.96,18.9,66,1012.52,0,0,0,0,0.01915
2022/11/26 04:01:00.010,n,155,3.96,2.88,4.68,18.8,65.9,1012.52,0,0,0,0,0.017395
2022/11/26 04:02:00.013,n,160,5.4,4.68,10.440002,18.8,65.6,1012.52,0,0,0,0,0.01915
2022/11/26 04:03:00.015,n,143,2.16,1.8,5.04,18.8,65.9,1012.52,0,0,0,0,0.018234
2022/11/26 04:04:00.002,n,184,6.48,2.88,8.28,18.8,65.800004,1012.52,0,0,0,0,0.013885
2022/11/26 04:05:00.001,n,179,6.84,4.68,10.08,18.7,66,1012.52,0,0,0,0,0.024376
2022/11/26 04:06:00.004,n,189,8.64,6.48,11.16,18.7,65.6,1012.52,0,0,0,0,0.026093
2022/11/26 04:07:00.006,n,165,8.28,5.76,11.52,18.7,66,1012.52,0,0,0,0,0.028725
2022/11/26 04:08:00.009,n,163,2.52,2.16,3.6,18.7,66,1012.52,0,0,0,0,0.026093
2022/11/26 04:09:00.001,n,186,3.24,2.88,3.6,18.7,66.199996,1012.52,0,0,0,0,0.027847
2022/11/26 04:10:00.002,n,238,2.52,1.8,2.88,18.7,66.300004,1012.52,0,0,0,0,0.02697
2022/11/26 04:11:00.002,n,307,1.44,0.36,5.4,18.7,66.1,1012.52,0,0,0,0,0.028725
2022/11/26 04:12:00.004,n,246,1.8,1.44,3.96,18.7,66.1,1012.52,0,0,0,0,0.031319
2022/11/26 04:13:00.001,n,225,2.52,2.16,2.88,18.7,66.300004,1012.62,0,0,0,0,0.032196
2022/11/26 04:14:00.002,n,162,1.08,0.36,1.8,18.7,66.800004,1012.62,0,0,0,0,0.033073
2022/11/26 04:15:00.001,n,199,0.72,0.36,2.16,18.7,66.5,1012.52,0,0,0,0,0.033951
2022/11/26 04:16:00.005,n,193,5.4,2.88,8.28,18.7,65.6,1012.52,0,0,0,0,0.047874
2022/11/26 04:17:00.006,n,164,2.52,2.16,4.68,18.7,65.699996,1012.52,0,0,0,0,0.056534
2022/11/26 04:18:00.009,n,222,1.44,0.36,5.4,18.7,66,1012.52,0,0,0,0,0.064392
2022/11/26 04:19:00.013,n,286,1.44,0.72,4.68,18.7,65.9,1012.52,0,0,0,0,0.076561
2022/11/26 04:20:00.011,n,138,4.32,2.52,5.04,18.7,65.699996,1012.52,0,0,0,0,0.087852
2022/11/26 04:21:00.016,n,160,3.24,2.16,8.28,18.7,65.6,1012.62,0,0,0,0,0.109634
2022/11/26 04:22:00.004,n,192,0.72,0.36,1.44,18.7,65.800004,1012.62,0,0,0,0,0.133972
2022/11/26 04:23:00.002,n,194,2.52,1.8,6.84,18.7,65.699996,1012.62,0,0,0,0,0.162697
2022/11/26 04:24:00.005,n,198,2.88,2.16,4.68,18.6,65.6,1012.62,0,0,0,0,0.20092
2022/11/26 04:25:00.001,n,214,2.16,1.08,5.4,18.6,65.699996,1012.62,0,0,0,0,0.247002
2022/11/26 04:26:00.001,n,192,1.08,0,3.96,18.6,65.800004,1012.62,0,0,0,0,0.295677
2022/11/26 04:27:00.001,n,213,1.8,0.36,4.32,18.6,65.699996,1012.62,0,0,0,0,0.354767
2022/11/26 04:28:00.003,n,286,2.88,2.16,3.24,18.6,66.1,1012.72,0,0,0,0,0.435562
2022/11/26 04:29:00.007,n,14,0.72,0.36,1.08,18.6,66,1012.72,0,0,0,0,0.550118
2022/11/26 04:30:00.011,n,222,2.52,0.72,5.76,18.6,66.199996,1012.72,0,0,0,0,0.699997
2022/11/26 04:31:00.002,n,220,1.44,0.36,3.24,18.6,66.199996,1012.72,0,0,0,0,0.866165
2022/11/26 04:32:00.002,n,277,2.16,1.44,2.88,18.6,66.1,1012.72,0,0,0,0,1.045227
2022/11/26 04:33:00.001,n,194,2.88,2.16,5.04,18.6,66,1012.72,0,0,0,0,1.224098
2022/11/26 04:34:00.002,n,190,2.16,0.36,6.48,18.6,66.1,1012.72,0,0,0,0,1.405411
2022/11/26 04:35:00.010,n,318,3.96,1.44,7.56,18.5,66.199996,1012.72,0,0,0,0,1.591721
2022/11/26 04:36:00.001,n,110,1.44,0.36,2.52,18.5,66.4,1012.72,0,0,0,0,1.774368
2022/11/26 04:37:00.002,n,289,3.24,2.88,4.32,18.6,66.699996,1012.72,0,0,0,0,1.964607
2022/11/26 04:38:00.004,n,313,1.08,0.36,1.8,18.6,66.800004,1012.72,0,0,0,0,2.174225
2022/11/26 04:39:00.008,n,163,1.08,0.36,3.96,18.6,66.9,1012.72,0,0,0,0,2.402039
2022/11/26 04:40:00.001,n,242,0.72,0.36,1.08,18.5,66.6,1012.72,0,0,0,0,2.659798
2022/11/26 04:41:00.002,n,199,2.16,1.8,2.52,18.5,66.6,1012.72,0,0,0,0,2.95166
2022/11/26 04:42:00.003,n,255,2.16,0.72,5.4,18.5,66.6,1012.72,0,0,0,0,3.277512
2022/11/26 04:43:00.006,n,159,4.32,3.96,4.68,18.5,66.6,1012.72,0,0,0,0,3.632584
2022/11/26 04:44:00.001,n,154,3.6,2.88,3.96,18.5,66.6,1012.72,0,0,0,0,4.016152
2022/11/26 04:45:00.001,n,162,1.8,0.72,6.12,18.4,66.699996,1012.82,0,0,0,0,4.423828
2022/11/26 04:46:00.002,n,198,4.68,3.24,7.56,18.4,66.699996,1012.82,0,0,0,0,4.849396
2022/11/26 04:47:00.006,n,133,2.16,1.8,2.52,18.4,66.9,1012.82,0,0,0,0,5.304642
2022/11/26 04:48:00.005,n,177,2.52,1.8,3.24,18.4,67,1012.82,0,0,0,0,5.782891
2022/11/26 04:49:00.002,n,179,2.52,2.16,2.88,18.4,67,1012.82,0,0,0,0,6.282845
2022/11/26 04:50:00.002,n,188,1.8,0.72,5.04,18.4,67.1,1012.82,0,0,0,0,6.811943
2022/11/26 04:51:00.002,n,182,2.88,0.36,6.12,18.4,67.2,1012.82,0,0,0,0,7.36805
2022/11/26 04:52:00.005,n,181,2.88,1.44,7.2,18.3,67.3,1012.82,0,0,0,0,7.951699